Location: Bogis-Bossey
(46.3500°N, 6.1667°E)
Time: 17:08:09
(UTC+00:00)

Meteor 2-4 Rocket - Pass Details

Date: 17 August 2022
Orbit: 798 x 909 km, 81.2° (Epoch: 30 September)

Event Time Altitude Azimuth Distance (km) Brightness Sun altitude
Rises 20:58:19 0° 350° (N) 3,550 7.9 -20.3°
Reaches altitude 10° 21:00:50 10° 353° (N) 2,601 7.0 -20.6°
Maximum altitude 21:06:46 69° 77° (ENE) 962 3.8 -21.3°
Enters shadow 21:08:40 43° 145° (SE) 1,228 4.0 -21.5°
